Regional Weather Roundup
Issued by NWS

Home | Current Version | Previous Version | Graphics & Text | Print | Product List | Glossary On
Versions: 1 2 3 4 5 6 7 8 9 10 11 12 13 14 15 16 17 18 19 20 21 22 23 24 25 26 27 28
000
ASUS45 KCYS 190110
RWRWY

WYOMING REGIONAL WEATHER ROUNDUP
NATIONAL WEATHER SERVICE CHEYENNE WY
600 PM MST SAT NOV 18 2017

NOTE:  "FAIR" INDICATES FEW OR NO CLOUDS BELOW 12,000 FEET
WITH NO SIGNIFICANT WEATHER AND/OR OBSTRUCTIONS TO VISIBILITY.

WYZ001-190200-
YELLOWSTONE NATIONAL PARK

CITY           SKY/WX    TMP DP  RH WIND       PRES   REMARKS
LK YELLOWSTONE   N/A     15  12  88 CALM      30.31F
W YELLOWSTONE  NOT AVBL

$$
WYZ002>013-054>058-071-098>099-190200-
NORTHERN WYOMING

CITY           SKY/WX    TMP DP  RH WIND       PRES   REMARKS
JACKSON        FAIR      22  17  81 S9          N/A  WCI  12
CODY           FAIR      37  14  38 W14       30.17R WCI  28
GREYBULL       FAIR      33  15  47 VRB3      30.18S
WORLAND        FAIR      28  16  60 E7        30.18S WCI  21
SHERIDAN       FAIR      28  21  75 SE6       30.14S WCI  22
BUFFALO        FAIR      25  11  55 W12       30.15R WCI  14
GILLETTE       FAIR      21  15  78 CALM      30.15R
HULETT         FAIR      34  18  51 SW6       30.15S WCI  29
NEWCASTLE      FAIR      32  14  47 N8        30.17R WCI  25

$$
WYZ014>020-022>026-101>103-190200-
CENTRAL WYOMING

CITY           SKY/WX    TMP DP  RH WIND       PRES   REMARKS
BIG PINEY      FAIR      14   9  80 N7        30.32S WCI   4
PINEDALE       FAIR      18  12  79 NW5       30.33S WCI  11
DUBOIS         FAIR      23  12  63 N22G29    30.21R WCI   8
LANDER         FAIR      33  10  38 E5        30.18R WCI  29
RIVERTON       FAIR      32  15  49 N3        30.18S
CASPER         FAIR      29  19  66 SW21      30.18S WCI  16
DOUGLAS        FAIR      30  21  69 N6        30.18R WCI  24

$$
WYZ021-027>030-104>119-190200-
SOUTHERN WYOMING

CITY           SKY/WX    TMP DP  RH WIND       PRES   REMARKS
EVANSTON       FAIR      22  17  81 CALM      30.33S
FORT BRIDGER   FAIR      19  14  79 W10       30.36S WCI   8
ROCK SPRINGS   FAIR      21  13  71 S6        30.34S WCI  13
DIXON          FAIR      19  10  66 CALM      30.39S
RAWLINS        FAIR      24  15  68 W13       30.31R WCI  12
SARATOGA       FAIR      21  12  68 NE7       30.31R WCI  13
LARAMIE        FAIR      21  11  65 S7        30.21R WCI  12
CHEYENNE       FAIR      30  14  51 W10       30.18S WCI  21
TORRINGTON     FAIR      35  19  52 W14       30.20R WCI  26
PINE BLUFFS    FAIR      32  16  51 MISG      30.21R

$$




USA.gov is the U.S. government's official web portal to all federal, state and local government web resources and services.